Location: Molveno
(46.1500°N, 10.9667°E)
Time: 16:53:23
(UTC+00:00)

SL-16 R/B - Pass Details

Date: 05 July 2020
Orbit: 985 x 1007 km, 99.5° (Epoch: 11 August)

Event Time Altitude Azimuth Distance (km) Brightness Sun altitude
Exits shadow 23:31:34 - 119° (ESE) 3,081 4.9 -21.1°
Reaches altitude 10° 23:32:33 10° 114° (ESE) 2,766 4.7 -21.1°
Maximum altitude 23:37:38 27° 59° (ENE) 1,808 4.2 -21.1°
Drops below altitude 10° 23:42:45 10° 4° (N) 2,789 6.1 -21.0°
Sets 23:45:35 0° 353° (N) 3,745 7.0 -21.0°
